Time,TemperatureF,DewpointF,PressureIn,WindDirection,WindDirectionDegrees,WindSpeedMPH,WindSpeedGustMPH,Humidity,HourlyPrecipIn,Conditions,Clouds,dailyrainin,SolarRadiationWatts/m^2,SoftwareType,DateUTC
2013-02-25 00:02:00,60.0,49.0,-100.00,East,92,4.0,8.0,68,0.00,,,0.00,0.000000,,2013-02-25 06:02:00,
2013-02-25 00:32:00,60.0,52.0,-100.00,ENE,57,4.0,7.0,75,0.00,,,0.00,0.000000,,2013-02-25 06:32:00,
2013-02-25 00:42:00,60.0,52.0,-100.00,ENE,57,4.0,7.0,75,0.00,,,0.00,0.000000,,2013-02-25 06:42:00,
2013-02-25 00:52:00,60.0,52.0,-100.00,ENE,57,4.0,7.0,75,0.00,,,0.00,0.000000,,2013-02-25 06:52:00,
2013-02-25 01:01:00,60.0,52.0,-100.00,ENE,57,4.0,7.0,75,0.00,,,0.00,0.000000,,2013-02-25 07:01:00,
2013-02-25 01:32:00,59.0,52.0,-100.00,NE,54,4.0,7.0,78,0.00,,,0.00,0.000000,,2013-02-25 07:32:00,
2013-02-25 01:42:00,59.0,52.0,-100.00,NE,54,4.0,7.0,78,0.00,,,0.00,0.000000,,2013-02-25 07:42:00,
2013-02-25 01:52:00,59.0,52.0,-100.00,NE,54,4.0,7.0,78,0.00,,,0.00,0.000000,,2013-02-25 07:52:00,
2013-02-25 02:01:00,59.0,52.0,-100.00,NE,54,4.0,7.0,78,0.00,,,0.00,0.000000,,2013-02-25 08:01:00,
2013-02-25 02:32:00,59.0,54.0,-100.00,East,99,5.0,9.0,83,0.00,,,-99.99,0.000000,,2013-02-25 08:32:00,
2013-02-25 02:42:00,59.0,54.0,-100.00,East,99,5.0,9.0,83,0.00,,,-99.99,0.000000,,2013-02-25 08:42:00,
2013-02-25 02:52:00,59.0,54.0,-100.00,East,99,5.0,9.0,83,0.00,,,-99.99,0.000000,,2013-02-25 08:52:00,
2013-02-25 03:01:00,59.0,54.0,-100.00,East,99,5.0,9.0,83,0.00,,,-99.99,0.000000,,2013-02-25 09:01:00,
2013-02-25 03:32:00,60.0,57.0,-100.00,ESE,109,5.0,10.0,89,0.00,,,0.00,0.000000,,2013-02-25 09:32:00,
2013-02-25 03:42:00,60.0,57.0,-100.00,ESE,109,5.0,10.0,89,0.00,,,0.00,0.000000,,2013-02-25 09:42:00,
2013-02-25 03:52:00,60.0,57.0,-100.00,ESE,109,5.0,10.0,89,0.00,,,0.00,0.000000,,2013-02-25 09:52:00,
2013-02-25 04:01:00,60.0,57.0,-100.00,ESE,109,5.0,10.0,89,0.00,,,0.00,0.000000,,2013-02-25 10:01:00,
2013-02-25 04:32:00,60.0,57.0,-100.00,East,80,4.0,7.0,91,0.00,,,0.00,0.000000,,2013-02-25 10:32:00,
2013-02-25 04:42:00,60.0,57.0,-100.00,East,80,4.0,7.0,91,0.00,,,0.00,0.000000,,2013-02-25 10:42:00,
2013-02-25 04:52:00,60.0,57.0,-100.00,East,80,4.0,7.0,91,0.00,,,0.00,0.000000,,2013-02-25 10:52:00,
2013-02-25 05:01:00,60.0,57.0,-100.00,East,80,4.0,7.0,91,0.00,,,0.00,0.000000,,2013-02-25 11:01:00,
2013-02-25 05:32:00,60.0,58.0,-100.00,East,100,4.0,7.0,94,0.00,,,0.00,0.000000,,2013-02-25 11:32:00,
2013-02-25 05:42:00,60.0,58.0,-100.00,East,100,4.0,7.0,94,0.00,,,0.00,0.000000,,2013-02-25 11:42:00,
2013-02-25 05:52:00,60.0,58.0,-100.00,East,100,4.0,7.0,94,0.00,,,0.00,0.000000,,2013-02-25 11:52:00,
2013-02-25 06:02:00,60.0,58.0,-100.00,East,100,4.0,7.0,94,0.00,,,0.00,0.000000,,2013-02-25 12:02:00,
2013-02-25 06:32:00,60.0,59.0,-100.00,ESE,119,5.0,7.0,97,0.00,,,0.00,0.000000,,2013-02-25 12:32:00,
2013-02-25 06:42:00,60.0,59.0,-100.00,ESE,119,5.0,7.0,97,0.00,,,0.00,0.000000,,2013-02-25 12:42:00,
2013-02-25 06:55:00,60.0,59.0,-100.00,ESE,119,5.0,7.0,97,0.00,,,0.00,0.000000,,2013-02-25 12:55:00,
2013-02-25 07:02:00,60.0,59.0,-100.00,ESE,119,5.0,7.0,97,0.00,,,0.00,0.000000,,2013-02-25 13:02:00,
2013-02-25 07:32:00,61.0,60.0,-100.00,SE,129,3.0,9.0,97,0.00,,,-99.99,1.000000,,2013-02-25 13:32:00,
2013-02-25 07:42:00,61.0,60.0,-100.00,SE,129,3.0,9.0,97,0.00,,,-99.99,1.000000,,2013-02-25 13:42:00,
2013-02-25 07:52:00,61.0,60.0,-100.00,SE,129,3.0,9.0,97,0.00,,,-99.99,1.000000,,2013-02-25 13:52:00,
2013-02-25 08:03:00,61.0,60.0,-100.00,SE,129,3.0,9.0,97,0.00,,,-99.99,1.000000,,2013-02-25 14:03:00,
2013-02-25 08:32:00,62.0,61.0,-100.00,SE,143,3.0,6.0,97,0.00,,,0.00,23.000000,,2013-02-25 14:32:00,
2013-02-25 08:42:00,62.0,61.0,-100.00,SE,143,3.0,6.0,97,0.00,,,0.00,23.000000,,2013-02-25 14:42:00,
2013-02-25 08:52:00,62.0,61.0,-100.00,SE,143,3.0,6.0,97,0.00,,,0.00,23.000000,,2013-02-25 14:52:00,
2013-02-25 09:02:00,62.0,61.0,-100.00,SE,143,3.0,6.0,97,0.00,,,0.00,23.000000,,2013-02-25 15:02:00,
2013-02-25 09:32:00,63.0,62.0,-100.00,NNE,27,2.0,5.0,97,0.00,,,0.00,47.000000,,2013-02-25 15:32:00,
2013-02-25 09:42:00,63.0,62.0,-100.00,NNE,27,2.0,5.0,97,0.00,,,0.00,47.000000,,2013-02-25 15:42:00,
2013-02-25 09:52:00,63.0,62.0,-100.00,NNE,27,2.0,5.0,97,0.00,,,0.00,47.000000,,2013-02-25 15:52:00,
2013-02-25 10:02:00,63.0,62.0,-100.00,NNE,27,2.0,5.0,97,0.00,,,0.00,47.000000,,2013-02-25 16:02:00,
2013-02-25 10:32:00,66.0,65.0,-100.00,ESE,117,5.0,9.0,97,0.00,,,-99.99,102.000000,,2013-02-25 16:32:00,
2013-02-25 10:42:00,66.0,65.0,-100.00,ESE,117,5.0,9.0,97,0.00,,,-99.99,102.000000,,2013-02-25 16:42:00,
2013-02-25 10:52:00,66.0,65.0,-100.00,ESE,117,5.0,9.0,97,0.00,,,-99.99,102.000000,,2013-02-25 16:52:00,
2013-02-25 11:01:00,66.0,65.0,-100.00,ESE,117,5.0,9.0,97,0.00,,,-99.99,102.000000,,2013-02-25 17:01:00,
2013-02-25 11:32:00,69.0,66.0,-100.00,SSE,167,3.0,10.0,89,0.00,,,0.00,164.000000,,2013-02-25 17:32:00,
2013-02-25 11:42:00,69.0,66.0,-100.00,SSE,167,3.0,10.0,89,0.00,,,0.00,164.000000,,2013-02-25 17:42:00,
2013-02-25 11:52:00,69.0,66.0,-100.00,SSE,167,3.0,10.0,89,0.00,,,0.00,164.000000,,2013-02-25 17:52:00,
2013-02-25 12:01:00,69.0,66.0,-100.00,SSE,167,3.0,10.0,89,0.00,,,0.00,164.000000,,2013-02-25 18:01:00,
2013-02-25 12:33:00,74.0,69.0,-100.00,SSW,199,6.0,13.0,84,0.00,,,0.00,220.000000,,2013-02-25 18:33:00,
2013-02-25 12:42:00,74.0,69.0,-100.00,SSW,199,6.0,13.0,84,0.00,,,0.00,220.000000,,2013-02-25 18:42:00,
2013-02-25 12:52:00,74.0,69.0,-100.00,SSW,199,6.0,13.0,84,0.00,,,0.00,220.000000,,2013-02-25 18:52:00,
2013-02-25 13:01:00,74.0,69.0,-100.00,SSW,199,6.0,13.0,84,0.00,,,0.00,220.000000,,2013-02-25 19:01:00,
2013-02-25 13:32:00,71.0,69.0,-100.00,SSW,212,7.0,11.0,92,0.10,,,0.10,90.000000,,2013-02-25 19:32:00,
2013-02-25 13:42:00,71.0,69.0,-100.00,SSW,212,7.0,11.0,92,0.10,,,0.10,90.000000,,2013-02-25 19:42:00,
2013-02-25 13:52:00,71.0,69.0,-100.00,SSW,212,7.0,11.0,92,0.10,,,0.10,90.000000,,2013-02-25 19:52:00,
2013-02-25 14:01:00,71.0,69.0,-100.00,SSW,212,7.0,11.0,92,0.10,,,0.10,90.000000,,2013-02-25 20:01:00,
2013-02-25 14:32:00,72.0,62.0,-100.00,West,265,7.0,19.0,70,0.01,,,0.11,429.000000,,2013-02-25 20:32:00,
2013-02-25 14:42:00,72.0,62.0,-100.00,West,265,7.0,19.0,70,0.01,,,0.11,429.000000,,2013-02-25 20:42:00,
2013-02-25 14:52:00,72.0,62.0,-100.00,West,265,7.0,19.0,70,0.01,,,0.11,429.000000,,2013-02-25 20:52:00,
2013-02-25 15:01:00,72.0,62.0,-100.00,West,265,7.0,19.0,70,0.01,,,0.11,429.000000,,2013-02-25 21:01:00,
2013-02-25 15:32:00,74.0,50.0,-100.00,West,261,10.0,20.0,43,0.00,,,0.11,479.000000,,2013-02-25 21:32:00,
2013-02-25 15:42:00,74.0,50.0,-100.00,West,261,10.0,20.0,43,0.00,,,0.11,479.000000,,2013-02-25 21:42:00,
2013-02-25 15:52:00,74.0,50.0,-100.00,West,261,10.0,20.0,43,0.00,,,0.11,479.000000,,2013-02-25 21:52:00,
2013-02-25 16:01:00,74.0,50.0,-100.00,West,261,10.0,20.0,43,0.00,,,0.11,479.000000,,2013-02-25 22:01:00,
2013-02-25 16:32:00,75.0,41.0,-100.00,WSW,251,13.0,25.0,29,0.00,,,0.11,465.000000,,2013-02-25 22:32:00,
2013-02-25 16:42:00,75.0,41.0,-100.00,WSW,251,13.0,25.0,29,0.00,,,0.11,465.000000,,2013-02-25 22:42:00,
2013-02-25 16:52:00,75.0,41.0,-100.00,WSW,251,13.0,25.0,29,0.00,,,0.11,465.000000,,2013-02-25 22:52:00,
2013-02-25 17:01:00,75.0,41.0,-100.00,WSW,251,13.0,25.0,29,0.00,,,0.11,465.000000,,2013-02-25 23:01:00,
2013-02-25 17:32:00,73.0,33.0,-100.00,WSW,243,12.0,29.0,23,0.00,,,0.11,266.000000,,2013-02-25 23:32:00,
2013-02-25 17:42:00,73.0,33.0,-100.00,WSW,243,12.0,29.0,23,0.00,,,0.11,266.000000,,2013-02-25 23:42:00,
2013-02-25 17:52:00,73.0,33.0,-100.00,WSW,243,12.0,29.0,23,0.00,,,0.11,266.000000,,2013-02-25 23:52:00,
2013-02-25 18:01:00,73.0,33.0,-100.00,WSW,243,12.0,29.0,23,0.00,,,0.11,266.000000,,2013-02-26 00:01:00,
2013-02-25 18:32:00,65.0,29.0,-100.00,West,267,11.0,30.0,26,0.00,,,0.11,55.000000,,2013-02-26 00:32:00,
2013-02-25 18:42:00,65.0,29.0,-100.00,West,267,11.0,30.0,26,0.00,,,0.11,55.000000,,2013-02-26 00:42:00,
2013-02-25 18:52:00,65.0,29.0,-100.00,West,267,11.0,30.0,26,0.00,,,0.11,55.000000,,2013-02-26 00:52:00,
2013-02-25 19:02:00,65.0,29.0,-100.00,West,267,11.0,30.0,26,0.00,,,0.11,55.000000,,2013-02-26 01:02:00,
2013-02-25 19:32:00,62.0,28.0,-100.00,West,270,13.0,25.0,27,0.00,,,0.11,1.000000,,2013-02-26 01:32:00,
2013-02-25 19:42:00,62.0,28.0,-100.00,West,270,13.0,25.0,27,0.00,,,0.11,1.000000,,2013-02-26 01:42:00,
2013-02-25 19:52:00,62.0,28.0,-100.00,West,270,13.0,25.0,27,0.00,,,0.11,1.000000,,2013-02-26 01:52:00,
2013-02-25 20:01:00,62.0,28.0,-100.00,West,270,13.0,25.0,27,0.00,,,0.11,1.000000,,2013-02-26 02:01:00,
2013-02-25 20:32:00,56.0,29.0,-100.00,WSW,257,13.0,31.0,35,0.00,,,0.11,0.000000,,2013-02-26 02:32:00,
2013-02-25 20:42:00,56.0,29.0,-100.00,WSW,257,13.0,31.0,35,0.00,,,0.11,0.000000,,2013-02-26 02:42:00,
2013-02-25 20:52:00,56.0,29.0,-100.00,WSW,257,13.0,31.0,35,0.00,,,0.11,0.000000,,2013-02-26 02:52:00,
2013-02-25 21:02:00,56.0,29.0,-100.00,WSW,257,13.0,31.0,35,0.00,,,0.11,0.000000,,2013-02-26 03:02:00,
2013-02-25 21:32:00,54.0,28.0,-100.00,WSW,256,13.0,27.0,36,0.00,,,0.11,0.000000,,2013-02-26 03:32:00,
2013-02-25 21:42:00,54.0,28.0,-100.00,WSW,256,13.0,27.0,36,0.00,,,0.11,0.000000,,2013-02-26 03:42:00,
2013-02-25 21:52:00,54.0,28.0,-100.00,WSW,256,13.0,27.0,36,0.00,,,0.11,0.000000,,2013-02-26 03:52:00,
2013-02-25 22:01:00,54.0,28.0,-100.00,WSW,256,13.0,27.0,36,0.00,,,0.11,0.000000,,2013-02-26 04:01:00,
2013-02-25 22:32:00,51.0,28.0,-100.00,West,268,12.0,30.0,41,0.00,,,0.11,0.000000,,2013-02-26 04:32:00,
2013-02-25 22:42:00,51.0,28.0,-100.00,West,268,12.0,30.0,41,0.00,,,0.11,0.000000,,2013-02-26 04:42:00,
2013-02-25 22:52:00,51.0,28.0,-100.00,West,268,12.0,30.0,41,0.00,,,0.11,0.000000,,2013-02-26 04:52:00,
2013-02-25 23:01:00,51.0,28.0,-100.00,West,268,12.0,30.0,41,0.00,,,0.11,0.000000,,2013-02-26 05:01:00,
2013-02-25 23:32:00,49.0,29.0,-100.00,West,267,18.0,30.0,45,0.00,,,0.11,0.000000,,2013-02-26 05:32:00,
2013-02-25 23:43:00,49.0,29.0,-100.00,West,267,18.0,30.0,45,0.00,,,0.11,0.000000,,2013-02-26 05:43:00,
2013-02-25 23:52:00,49.0,29.0,-100.00,West,267,18.0,30.0,45,0.00,,,0.11,0.000000,,2013-02-26 05:52:00,